Hourly Data Report for October 04, 2017

All times are specified in Local Standard Time (LST). Add 1 hour to adjust for Daylight Saving Time where and when it is observed.

ARMSTRONG (AUT)
ONTARIO

50°17'37.000" N
88°54'19.000" W
322.50 m
6040325
71841
WYW

Download Data

Hourly Data (October 2017)
Hourly Data Report for October 4, 2017
Temp Definition
°C
Dew Point Temp Definition
°C
Rel Hum Definition
%
Wind Dir Definition
10's deg

Wind Spd Definition
km/h
Visibility Definition
km
Stn Press Definition
kPa
Hmdx Definition


Wind Chill Definition


Weather Definition


TIME
00:00 8.5 7.1 91 31 8   97.94     LegendNANA
01:00 7.6 6.2 91 27 9   97.95     LegendNANA
02:00 8.3 6.8 90 28 12   97.95     LegendNANA
03:00 8.0 6.4 90 26 10   97.94     LegendNANA
04:00 7.0 5.5 90 28 10   97.95     LegendNANA
05:00 5.5 4.1 91 28 6   97.95     LegendNANA
06:00 5.5 4.4 93 26 8   97.94     LegendNANA
07:00 4.6 3.6 93 27 7   97.91     LegendNANA
08:00 4.7 3.6 93 19 5   97.93     LegendNANA
09:00 6.0 5.1 94 0 1   97.92     LegendNANA
10:00 7.9 6.3 89 22 6   97.88     LegendNANA
11:00 10.5 7.3 80 22 11   97.81     LegendNANA
12:00 11.4 7.6 78 23 13   97.73     LegendNANA
13:00 12.4 7.0 69 25 20   97.71     LegendNANA
14:00 12.2 6.6 69 25 12   97.66     LegendNANA
15:00 11.9 4.7 61 25 24   97.66     LegendNANA
16:00 12.0 4.5 60 26 23   97.62     LegendNANA
17:00 11.2 4.2 62 26 21   97.59     LegendNANA
18:00 10.5 4.3 66 27 20   97.61     LegendNANA
19:00 10.1 4.4 67 27 16   97.58     LegendNANA
20:00 9.8 4.5 70 26 17   97.62     LegendNANA
21:00 9.4 4.6 72 27 18   97.62     LegendNANA
22:00 9.3 4.5 72 27 16   97.60     LegendNANA
23:00 9.0 4.3 72 28 15   97.60     LegendNANA

Notes on Data Quality.

Legend

  • E = Estimated
  • M = Missing
  • NA = Not Available
  • ‡ = Partner data that is not subject to review by the National Climate Archives
Date modified: